User: anonymous   Login
Location: Writing-on-Stone Provincial Park
(49.0825°N, 111.6163°W)
Time: 11:23:15
(UTC-06:00)
Language:

BREEZE-M DEB (TANK) - Orbit

View from above orbital plane
View from above orbital plane
View from above satellite
View from above satellite

Ground track
Ground track

The orbit data is extracted from the following two-line orbital elements,

1 29649U 06056B   17295.92181494  .00000409  00000-0  64165-4 0  9998
2 29649  49.4954 140.4042 5381331 241.1993  54.9737  4.99825434194158
Epoch (UTC): 22 October 2017 22:07:24
Eccentricity: 0.5381331
inclination: 49.4954°
perigee height: 295 km
apogee height: 15847 km
right ascension of ascending node: 140.4042°
argument of perigee: 241.1993°
revolutions per day: 4.99825434
mean anomaly at epoch: 54.9737°
orbit number at epoch: 19415

The dashed part of the orbit path shows where the satellite is in the earth's shadow,  

DLR